Tracking 19293 objects as of 21-Nov-2018
HD Live streaming from Space Station
objects crossing your sky now

RADUGA 1-5

Track RADUGA 1-5 now!
RADUGA 1-5 is classified as:


NORAD ID: 26477
Int'l Code: 2000-049A
Perigee: 35,761.2 km
Apogee: 35,793.7 km
Inclination: 12.3 °
Period: 1,435.3 minutes
Semi major axis: 42148 km
RCS: 10 m2 (large)
Launch date: August 28, 2000
Source: Commonwealth of Independent States (former USSR) (CIS)
Launch site: TYURATAM MISSILE AND SPACE COMPLEX (TTMTR)

Military communication.
aabbcc
Your satellite tracking list
Your tracking list is empty




NASA's NSSDC Master Catalog

Two Line Element Set (TLE):
1 26477U 00049A   18324.69628219 -.00000253 +00000-0 +00000-0 0  9991
2 26477 012.2575 028.7587 0003862 300.2236 072.3984 01.00329934066693
Source of the keplerian elements: AFSPC